Probability
0 0 0 0 0 0 0 0 0 0 1 1 2 5 11 14 14 16 17 19 26 35 45 53 56 55 55 56 56 55 52 50 50 50 48 43 38 32 29 27 27 25 23 21
0 0 0 0 0 0 0 0 0 0 1 1 1 4 9 11 11 14 17 20 25 35 45 53 57 56 55 54 54 53 51 49 49 48 45 40 35 31 28 27 27 26 23 22
0 0 0 0 0 0 0 0 0 0 1 1 0 3 6 7 8 11 16 21 26 33 43 52 57 56 54 51 49 48 47 46 46 44 41 35 31 29 28 27 26 25 23 21
0 0 0 0 0 0 0 0 0 0 0 0 0 1 4 6 9 11 15 22 28 33 40 50 56 55 52 47 44 43 41 41 40 39 36 32 29 28 27 25 23 21 19 19
0 0 0 0 0 0 0 0 0 0 0 0 0 0 3 6 10 12 15 22 29 33 37 45 50 49 46 43 41 39 36 35 35 34 33 32 28 26 23 21 19 17 16 15
0 0 0 0 0 0 0 0 0 0 0 0 0 0 1 5 8 12 17 21 25 27 31 36 40 42 40 39 38 37 34 32 31 31 31 31 27 23 20 18 17 15 13 14
0 0 0 0 0 0 0 0 0 0 0 0 0 0 1 2 5 10 15 17 18 19 22 28 33 36 37 35 35 36 34 31 29 28 29 28 25 22 19 19 17 14 12 13
0 0 0 0 0 0 0 0 0 0 0 0 0 1 2 3 4 8 13 13 11 12 15 20 26 31 33 31 31 33 34 31 27 25 25 25 23 21 19 18 16 14 12 12
0 0 0 0 0 0 0 0 0 0 0 0 0 1 4 5 5 8 11 10 7 8 12 16 21 26 28 27 28 29 29 27 24 22 22 21 21 19 18 16 15 14 13 12
0 0 0 0 0 0 0 0 0 0 0 0 0 1 4 7 8 8 9 9 8 9 13 16 20 24 25 23 23 24 24 24 22 21 20 19 18 18 17 15 13 12 12 11
0 0 0 0 0 0 0 0 0 0 0 0 0 1 4 7 8 8 9 10 11 13 15 18 21 24 24 21 19 20 21 22 22 20 19 18 17 17 16 13 10 9 9 9
0 0 0 0 0 0 0 0 0 0 0 0 0 1 4 6 7 8 10 12 13 15 16 18 22 24 23 19 17 17 18 20 20 19 18 17 17 17 16 12 8 7 7 7
0 0 0 0 0 0 0 0 0 0 0 0 0 1 4 5 5 8 11 13 13 14 16 18 21 22 20 17 15 14 16 16 16 15 15 16 16 16 15 12 8 7 6 6
1 0 0 0 0 0 0 0 0 0 0 0 0 2 4 4 5 7 10 12 12 13 15 17 18 18 17 15 14 13 13 14 14 12 11 12 15 15 14 11 9 7 6 6
2 1 0 0 0 0 0 0 0 0 0 0 1 4 5 5 6 8 9 9 10 11 11 12 13 13 13 13 12 11 11 12 13 11 9 10 12 13 11 8 7 7 6 5
2 1 0 0 0 0 0 0 0 0 0 0 2 6 7 7 8 9 8 7 7 7 6 8 9 10 11 11 10 9 9 11 12 11 9 9 10 10 8 6 5 5 4 3
2 2 1 0 0 0 0 0 0 0 0 0 3 6 8 7 8 9 9 7 5 4 4 6 8 9 11 11 10 8 8 8 9 9 9 9 8 7 6 5 4 5 4 3
3 3 1 0 0 0 0 1 0 0 0 1 5 8 7 6 6 7 8 7 5 4 5 7 7 8 10 11 10 8 7 7 7 8 8 8 7 6 6 6 5 6 6 6
5 5 3 0 0 0 0 0 0 0 1 3 6 7 5 3 4 6 8 8 7 6 7 7 6 6 8 9 9 8 7 6 6 7 7 7 6 6 7 7 7 7 7 7
4 5 3 1 0 0 0 0 0 1 2 4 5 4 2 2 4 7 11 11 10 9 8 6 4 5 7 8 9 8 6 6 6 6 6 6 6 6 7 8 8 7 6 5
1 2 1 0 0 0 0 0 1 3 5 5 4 3 4 5 7 10 13 13 13 12 10 7 6 5 6 7 9 7 5 4 4 5 6 6 6 5 6 8 8 7 5 4
0 0 0 0 1 1 1 1 3 5 6 5 3 4 6 9 9 9 10 11 11 12 10 9 8 8 6 7 7 5 4 3 3 4 6 6 5 5 5 6 7 7 5 5
0 0 0 0 1 1 1 2 4 5 4 3 2 3 6 8 7 7 6 6 7 7 8 9 10 9 6 5 5 4 3 4 4 4 5 4 4 4 4 4 5 5 4 3
0 0 0 0 0 0 1 2 3 3 3 2 1 1 4 5 5 4 4 4 4 4 5 7 9 7 5 4 3 3 4 4 5 5 4 3 3 4 4 4 3 3 2 1
0 0 0 0 0 0 1 2 3 3 2 1 0 1 3 4 3 3 3 3 3 3 3 4 6 5 3 2 3 3 3 4 4 4 3 3 3 3 3 3 1 1 0 0
0 0 0 1 1 1 1 2 3 3 2 1 1 1 2 3 3 2 2 3 3 2 2 3 5 4 2 1 2 3 3 3 3 3 3 3 3 3 3 1 0 0 0 0
Wind_Speed
11 11 11 10 11 11 9 9 11 8 7 10 9 8 7 6 7 7 7 7 8 9 9 8 8 8 9 8 7 7 6 5 4 4 3 3 2 2 2 2 2 2 1 1
10 13 11 9 9 11 10 10 10 7 6 8 7 7 8 9 10 8 7 6 7 9 10 10 9 9 8 8 7 7 6 5 4 3 2 2 3 2 2 2 2 2 1 0
12 8 7 8 10 11 11 11 8 7 6 8 9 10 8 8 8 7 7 7 7 9 10 10 10 9 9 8 7 6 6 5 4 4 3 2 2 2 2 2 2 1 1 1
10 9 8 9 10 10 10 9 8 8 9 8 9 8 6 7 6 8 8 8 7 8 9 10 10 9 8 8 7 6 6 5 4 4 3 3 3 3 2 2 2 2 1 1
11 7 8 9 8 7 9 9 9 8 9 10 9 9 6 8 8 8 9 9 8 7 8 8 9 9 8 8 7 7 6 5 4 3 3 3 2 2 2 2 2 2 1 1
13 10 9 8 7 6 8 9 10 8 7 11 12 11 5 5 7 8 8 9 8 7 7 7 7 8 7 7 7 7 7 6 5 4 3 3 3 3 3 2 2 1 1 1
11 11 10 8 8 7 7 7 6 6 6 10 9 7 4 5 5 7 8 9 9 8 7 7 7 7 7 7 7 7 7 6 5 4 3 3 3 3 3 2 2 1 1 1
10 8 8 7 8 7 8 8 7 8 8 7 6 6 2 4 5 6 8 9 9 7 6 6 6 7 6 7 7 8 7 6 5 5 4 3 3 2 2 1 1 1 1 1
9 8 5 5 6 7 9 9 10 11 11 9 6 3 1 2 5 6 7 8 8 7 7 7 5 6 7 7 7 8 7 6 5 5 5 3 3 2 2 1 1 1 0 0
9 10 9 6 6 8 10 8 6 7 7 8 7 4 1 2 3 5 5 7 6 7 8 8 7 6 6 7 7 7 7 6 5 5 4 3 3 3 2 1 2 1 0 0
8 9 9 8 7 8 10 9 8 7 7 7 7 3 1 3 4 5 7 7 7 7 7 8 7 7 7 6 6 6 7 6 5 4 4 3 3 2 2 2 2 1 1 0
6 6 8 9 7 8 11 11 8 7 7 7 7 4 2 2 4 4 6 8 8 7 6 7 7 7 7 6 6 6 6 5 5 4 4 3 2 2 2 1 1 1 0 0
6 5 7 8 6 5 8 9 9 8 7 5 7 4 2 3 5 5 6 7 9 8 7 7 8 7 6 6 5 5 5 5 4 4 4 4 3 2 2 1 1 0 0 0
5 7 10 11 8 8 11 12 10 9 7 6 7 4 3 4 4 5 6 6 8 9 8 8 7 7 6 5 5 5 5 5 4 4 3 3 3 2 2 1 1 0 0 1
6 10 12 14 11 10 14 13 11 9 8 8 4 1 3 4 6 5 6 6 7 8 8 8 7 6 6 5 5 4 4 4 4 4 3 3 3 2 2 1 0 0 0 1
6 9 12 14 14 12 11 9 9 9 7 7 3 2 3 3 5 5 5 6 6 7 8 8 7 7 6 6 5 4 4 3 3 3 3 3 2 2 2 1 1 0 0 1
7 9 10 12 13 10 9 7 7 7 5 4 2 4 5 3 4 4 4 5 7 7 6 7 7 7 6 6 5 5 4 3 3 3 3 3 2 2 2 1 1 0 1 1
10 9 7 10 11 9 5 4 5 5 5 3 2 5 5 4 4 4 4 5 6 7 6 6 6 6 5 6 5 5 4 4 4 3 3 2 2 2 2 2 1 0 0 1
9 8 8 8 9 9 5 3 3 3 2 3 3 4 5 5 6 4 5 6 6 6 6 5 5 5 6 6 6 5 5 5 4 4 3 3 2 2 2 2 1 1 1 1
7 8 8 9 9 7 4 3 3 3 1 5 3 2 4 5 3 4 6 7 7 7 6 5 5 5 6 5 6 5 5 5 4 4 3 2 1 1 2 1 1 1 1 2
7 8 9 10 8 5 4 3 3 2 2 3 4 3 4 4 3 6 7 8 7 7 7 6 6 5 5 6 6 5 5 4 4 3 2 2 1 1 2 1 1 2 2 3
7 6 6 6 6 4 4 3 2 3 3 2 3 3 6 7 8 9 8 8 8 8 7 6 5 5 5 6 6 6 5 4 3 3 2 2 2 2 1 1 2 3 3 3
4 3 3 3 2 2 3 2 3 3 3 3 3 5 8 9 8 9 8 7 7 7 6 5 5 6 5 6 6 6 5 4 3 3 2 2 2 2 2 2 3 3 3 3
5 2 3 3 2 2 3 1 3 4 4 3 5 7 8 9 8 8 8 7 6 6 6 5 5 6 5 5 5 4 4 3 3 3 2 3 3 3 2 2 3 2 2 2
9 5 4 4 3 3 1 2 3 4 4 4 5 6 8 9 9 8 7 7 6 6 5 5 4 5 5 5 5 5 5 4 3 3 3 3 3 3 2 1 1 2 1 2
7 6 5 4 3 2 1 1 2 2 2 4 5 7 8 8 8 8 7 7 6 6 5 5 4 5 5 5 5 5 5 4 4 3 3 3 2 2 3 2 1 1 3 3
Wind_Direction
226 235 244 240 235 249 265 267 268 257 229 226 225 213 209 209 207 192 183 182 172 169 163 147 142 139 139 142 144 144 143 144 147 149 161 162 158 155 131 116 108 107 91 71
239 240 249 257 252 255 256 256 263 259 245 247 246 228 213 213 212 201 189 182 184 157 154 148 146 149 147 147 146 146 151 154 156 151 155 162 157 158 134 124 133 134 126 19
255 267 253 252 252 252 258 258 254 258 263 254 251 243 228 228 214 200 191 188 183 169 163 158 157 153 148 149 153 152 151 148 151 151 155 153 144 160 153 149 151 147 162 139
261 261 258 256 258 260 268 273 269 260 260 259 256 261 236 209 200 211 194 185 188 176 163 163 161 155 154 152 148 145 142 139 146 149 156 177 172 167 165 164 147 141 144 121
270 264 262 262 269 271 277 290 286 276 276 276 264 262 243 202 195 204 189 181 179 175 163 161 160 157 157 155 152 148 142 142 144 151 162 177 167 154 133 124 123 139 145 125
274 276 269 273 274 263 276 282 274 260 263 261 257 257 252 213 198 189 177 174 166 160 152 153 149 147 153 153 150 147 147 146 148 156 165 161 140 122 108 114 134 157 148 136
260 250 244 252 257 250 254 269 274 263 249 257 259 252 213 206 192 174 165 171 161 148 145 144 145 150 151 147 145 141 140 139 143 148 153 146 135 128 136 162 148 149 147 119
271 254 232 234 251 260 249 247 259 277 277 278 256 252 210 163 132 151 152 147 143 141 137 140 150 144 141 134 140 138 135 135 137 141 136 129 124 134 129 108 107 103 49 72
293 294 275 251 252 261 257 256 275 282 286 282 274 256 200 119 138 135 132 138 144 145 139 138 148 142 138 135 136 138 137 138 140 136 133 139 139 122 111 114 110 98 74 349
295 297 283 273 255 252 257 270 282 277 285 288 279 269 179 153 134 137 142 140 138 137 137 140 137 132 133 135 136 138 138 141 143 143 151 142 130 131 136 145 126 116 171 6
296 289 283 284 272 283 277 266 271 285 293 297 300 306 83 157 162 156 153 143 136 139 138 134 133 134 129 128 135 135 137 140 146 145 136 130 142 150 161 164 144 129 139 187
294 289 287 282 284 295 284 277 271 275 282 289 291 291 346 119 134 134 146 139 133 135 137 133 131 130 128 132 134 136 141 146 149 148 144 152 157 153 161 141 119 116 134 225
316 298 286 273 263 274 279 277 278 275 276 275 279 265 168 149 134 139 141 134 140 139 137 134 132 134 137 141 139 140 143 141 145 149 150 153 153 154 152 150 137 117 298 302
296 276 274 281 284 290 284 277 273 273 276 270 264 254 204 165 139 145 134 141 146 141 142 138 138 140 143 144 141 147 147 145 146 146 143 141 151 151 153 154 149 154 159 300
293 280 282 287 281 267 270 275 278 281 288 292 287 270 188 183 154 145 144 155 149 146 147 145 147 147 150 148 142 148 145 141 139 141 138 139 142 143 138 135 141 181 212 314
274 283 291 291 287 275 274 277 280 282 291 293 293 83 113 125 124 139 153 159 156 157 157 157 156 156 157 153 149 151 145 143 147 151 149 143 142 149 158 174 188 189 50 360
272 272 281 283 288 291 280 285 294 293 299 303 322 130 142 141 138 145 160 169 162 156 157 160 161 159 157 154 151 151 152 155 157 157 156 162 170 173 180 178 137 77 21 355
254 269 276 280 286 275 264 281 295 298 312 339 93 131 144 146 124 126 144 157 150 148 147 149 152 149 153 153 152 154 160 165 165 163 168 176 187 177 169 149 124 80 359 321
227 248 266 272 275 278 271 276 297 305 309 19 79 116 129 126 124 128 134 136 137 138 136 136 140 142 148 153 156 159 166 168 172 176 178 182 194 185 170 152 164 194 228 262
212 225 249 263 274 282 290 308 308 285 304 38 70 123 139 152 169 138 130 129 130 130 134 136 146 146 147 153 158 166 171 176 186 187 185 178 181 188 170 171 196 230 246 252
233 229 243 258 266 273 309 323 306 300 63 46 56 77 108 112 87 116 126 127 129 133 137 144 154 157 157 160 162 170 178 186 189 187 182 172 191 200 180 182 230 240 249 253
261 249 248 258 259 267 354 333 17 78 98 86 88 108 110 109 114 120 121 126 133 138 143 152 152 150 151 158 167 177 184 185 186 190 190 191 202 214 185 198 232 239 248 252
276 298 301 303 280 325 348 51 85 106 114 106 115 119 113 116 120 120 120 125 134 136 141 145 146 144 150 164 176 182 178 179 189 194 193 205 205 201 208 232 244 247 251 261
285 305 274 263 223 310 317 36 91 85 87 94 112 118 119 121 122 123 123 126 131 134 138 142 148 147 151 163 170 171 169 178 189 193 198 213 213 210 214 239 257 260 273 288
289 296 276 271 253 254 282 50 75 85 97 101 114 121 122 125 128 128 130 131 132 134 135 143 144 145 151 156 159 162 165 176 187 204 215 219 224 218 219 231 278 273 275 266
277 276 275 273 270 284 290 46 92 99 112 124 124 124 125 127 129 131 131 131 136 138 138 142 146 148 150 153 155 161 170 177 183 203 212 227 228 218 213 201 239 269 245 247